Погода в Кузнецове

Россия / Республика Марий Эл     56°09′57″N   46°42′42″E
темп.,
°C
ветер,
м/с
пор.,
м/с
влажн.,
%
обл.,
%
осадки,
мм/ч
давл.,
гПа
погр.,
м
24 июля, сб
сб2400:00+13зюз39965 0.6 1004222
03:00+11з37975 0.6 1005155
06:00+12сз469794 0.0 1006346
09:00+14ссз4687100 0.1 1008616
12:00+18ссз3552100 0.1 10091584
15:00+18ссз354677 0.1 10111593
18:00+17с3649100 0.0 1012537
21:00+14сз255698 0.0 1014123
25 июля, вс
вс2500:00+10сз22715 0.0 101720
03:00+8зсз22780 0.0 101822
06:00+11сз24675 0.0 1020171
09:00+17сз24455 0.0 1020829
12:00+21сз353354 0.0 10202578
15:00+22зсз343145 0.0 10202564
18:00+18сз484666 0.0 1021298
21:00+15ююз2254100 0.0 102111
26 июля, пн
пн2600:00+13зюз236033 0.0 102239
03:00+14зюз2455100 0.0 102382
06:00+15зюз245879 0.0 1023141
09:00+20з344561 0.0 1023638
12:00+20зсз454674 0.0 1023679
15:00+21зсз474274 0.0 10221006
18:00+22з3645100 0.0 1021435
21:00+16зюз225825 0.0 102115
27 июля, вт
вт2700:00+15зюз37676 0.0 1020109
03:00+15зюз376497 0.0 1020168
06:00+16з496898 0.0 1020266
09:00+21сз57555 0.0 10191007
12:00+24сз693940 0.0 10192393
15:00+22ссз4948100 0.0 10191382
18:00+22ссз475072 0.0 10191095
21:00+16сз22710 0.0 101911
28 июля, ср
ср2800:00+14сз12815 0.0 101911
03:00+14сз12785 0.0 101932
06:00+16з12732 0.0 1018138
09:00+22зсз23585 0.0 1017710
12:00+26зюз35406 0.0 10161786
15:00+26з3643100 0.0 10141631
18:00+22ю24546 0.1 101265
21:00+20зюз4961100 0.2 1011158